Regional Weather Roundup
Issued by NWS

Home | Current Version | Previous Version | Graphics & Text | Print | Product List | Glossary On
Versions: 1 2 3 4 5 6 7 8 9 10 11 12 13 14 15 16 17 18 19 20 21 22 23 24 25 26 27 28 29 30 31 32 33 34 35 36 37 38 39 40 41 42 43 44 45 46 47 48 49 50
401
ASUS44 KLIX 181810
RWRLA
LOUISIANA WEATHER ROUNDUP
NATIONAL WEATHER SERVICE NEW ORLEANS LA
100 PM CDT FRI APR 18 2014

NOTE: "FAIR" INDICATES FEW OR NO CLOUDS BELOW 12,000 FEET WITH NO
      SIGNIFICANT WEATHER AND/OR OBSTRUCTIONS TO VISIBILITY.
      SKY/WX - SKY CONDITION AND SIGNIFICANT WEATHER.
      TMP - AIR TEMPERATURE.    DP   - DEWPOINT TEMPERATURE.
      RH  - RELATIVE HUMIDITY.  PRES - PRESSURE.
      HX  - HEAT INDEX.         WCI  - WIND CHILL INDEX.

*  THESE STATIONS ARE NOT NWS OR FAA STATIONS AND ARE NOT UNDER
   NWS QUALITY CONTROL.

LAZ040-048-061>063-065-066-069-181900-
SOUTHEAST LOUISIANA

CITY           SKY/WX    TMP DP  RH WIND       PRES   REMARKS
N.O. AUDUBON     N/A     73 N/A N/A MISG        N/A
6HR MIN TEMP:  61; 6HR MAX TEMP:  73;

N.O. INTL ARPT MOSUNNY   72  60  66 N16G24    30.08F
6HR MIN TEMP:  61; 6HR MAX TEMP:  72; 6HR PCP: TRACE;

N.O. LAKEFRONT PTSUNNY   71  61  70 N15       30.09S
6HR MIN TEMP:  62; 6HR MAX TEMP:  71; 6HR PCP:  0.01;

N.O. DOWNTOWN* MOCLDY    72  57  60 N12G20    30.08F
6HR MIN TEMP:  61; 6HR MAX TEMP:  72;

SLIDELL        CLOUDY    70  59  68 N15       30.08F
6HR MIN TEMP:  61; 6HR MAX TEMP:  70; 6HR PCP: TRACE;

BATON ROUGE    MOSUNNY   78  57  48 VRB7      30.08F
6HR MIN TEMP:  61; 6HR MAX TEMP:  78;

BOOTHVILLE     CLOUDY    64  59  83 N12G21    30.05F
6HR MIN TEMP:  61; 6HR MAX TEMP:  66;

BELLE CHASSE   PTSUNNY   72  58  61 N10G20    30.06F
6HR MIN TEMP:  62; 6HR MAX TEMP:  73;

BOGALUSA*        N/A     68  58  70 N9G18     30.12F
6HR MIN TEMP:  62; 6HR MAX TEMP:  69;

GALLIANO*      MOCLDY    71  61  69 N16G24    30.06F
6HR MIN TEMP:  62; 6HR MAX TEMP:  73; 6HR PCP:  0.01;

NEW ROADS*     FAIR      73  60  63 W8        30.10F
6HR MIN TEMP:  57; 6HR MAX TEMP:  73;

GONZALES*      FAIR      75  60  59 NW8       30.07F
6HR MIN TEMP:  60; 6HR MAX TEMP:  75;

HAMMOND*       MOSUNNY   77  55  47 NE9G20    30.10S
HOUMA*         MOSUNNY   75  57  53 NE15      30.07F
PORT FOURCHON* MOCLDY    70  63  78 NE14G22   30.07F

$$

LAZ041-044-053-054-181900-
SOUTHWEST LOUISIANA

CITY           SKY/WX    TMP DP  RH WIND       PRES   REMARKS
LAKE CHARLES   SUNNY     73  57  57 NE12G18   30.13F
6HR MIN TEMP:  56; 6HR MAX TEMP:  74;

LAFAYETTE      MOSUNNY   74  59  59 NE12      30.11F
6HR MIN TEMP:  60; 6HR MAX TEMP:  75;

PATTERSON      PTSUNNY   73  61  64 N9        30.11F
6HR MIN TEMP:  61; 6HR MAX TEMP:  75;

SALT POINT       N/A     74  62  66 VRB6      30.07F
6HR MIN TEMP:  64; 6HR MAX TEMP:  75;

NEW IBERIA     MOSUNNY   75  60  59 NE12      30.10F
6HR MIN TEMP:  61; 6HR MAX TEMP:  76;

CHENAULT AIRPK MOSUNNY   72  57  60 W9        30.14F

$$

LAZ027-028-181900-
CENTRAL LOUISIANA

CITY           SKY/WX    TMP DP  RH WIND       PRES   REMARKS
FORT POLK      MOSUNNY   70  55  59 VRB7      30.15F
6HR MIN TEMP:  55; 6HR MAX TEMP:  71;

ALEXANDRIA INT MOSUNNY   68  59  73 NW7       30.15F
6HR MIN TEMP:  56; 6HR MAX TEMP:  68; 6HR PCP:  0.03;

ALEXANDRIA     PTSUNNY   67  57  70 NW6       30.16F
6HR MIN TEMP:  56; 6HR MAX TEMP:  67; 6HR PCP: TRACE;


$$

LAZ001-002-181900-
NORTHWEST LOUISIANA

CITY           SKY/WX    TMP DP  RH WIND       PRES   REMARKS
SHREVEPORT     PTSUNNY   71  53  52 N7        30.19F
6HR MIN TEMP:  56; 6HR MAX TEMP:  72; 6HR PCP: TRACE;

BARKSDALE AFB  MOSUNNY   70  53  54 VRB5      30.19F
6HR MIN TEMP:  54; 6HR MAX TEMP:  71;

DTN SHREVEPORT MOSUNNY   68  53  58 N6        30.19F
6HR MIN TEMP:  55; 6HR MAX TEMP:  71;


$$

LAZ014-016-181900-
NORTHEAST LOUISIANA

CITY           SKY/WX    TMP DP  RH WIND       PRES   REMARKS
MONROE         CLOUDY    68  56  65 N12       30.19F
6HR MIN TEMP:  56; 6HR MAX TEMP:  71; 6HR PCP: TRACE;

TALLULAH       NOT AVBL

$$




USA.gov is the U.S. government's official web portal to all federal, state and local government web resources and services.